Private Wetterstation Sandau
Wetterdaten: Mittwoch, 18.07.2012
Datum Zeit Temp. A. Feuchte A. Luftdruck Regen Wind Richtung Richtung Taupunkt Windchill
18.07.2012 00:01 14,9 C 81 % 1018,4 hPa 0,0 l/m 2,5 km/h (1 Bft) W 270 11,7 C 14,9 C
18.07.2012 00:06 14,9 C 82 % 1018,3 hPa 0,0 l/m 2,5 km/h (1 Bft) W-SW 247 11,9 C 14,9 C
18.07.2012 00:11 14,9 C 82 % 1018,5 hPa 0,0 l/m 3,2 km/h (1 Bft) W 270 11,9 C 14,9 C
18.07.2012 00:16 14,9 C 83 % 1018,4 hPa 0,0 l/m 6,8 km/h (2 Bft) W 270 12,0 C 14,9 C
18.07.2012 00:21 14,9 C 83 % 1018,5 hPa 0,0 l/m 7,9 km/h (2 Bft) W-SW 247 12,0 C 14,9 C
18.07.2012 00:26 14,9 C 83 % 1018,5 hPa 0,0 l/m 4,0 km/h (1 Bft) W-SW 247 12,0 C 14,9 C
18.07.2012 00:31 14,9 C 83 % 1018,4 hPa 0,0 l/m 4,3 km/h (1 Bft) SW 225 12,0 C 14,9 C
18.07.2012 00:36 14,9 C 83 % 1018,5 hPa 0,0 l/m 5,0 km/h (1 Bft) W-SW 247 12,0 C 14,9 C
18.07.2012 00:41 14,9 C 83 % 1018,6 hPa 0,0 l/m 6,1 km/h (2 Bft) W-SW 247 12,0 C 14,9 C
18.07.2012 00:46 14,9 C 83 % 1018,6 hPa 0,0 l/m 10,1 km/h (2 Bft) W-SW 247 12,0 C 14,9 C
18.07.2012 00:51 14,9 C 84 % 1018,4 hPa 0,0 l/m 7,9 km/h (2 Bft) W-SW 247 12,2 C 14,9 C
18.07.2012 00:56 14,9 C 84 % 1018,2 hPa 0,0 l/m 6,8 km/h (2 Bft) W-SW 247 12,2 C 14,9 C
18.07.2012 01:01 14,9 C 84 % 1018,3 hPa 0,0 l/m 10,8 km/h (2 Bft) W-SW 247 12,2 C 14,9 C
18.07.2012 01:06 14,9 C 84 % 1018,3 hPa 0,0 l/m 6,1 km/h (2 Bft) W 270 12,2 C 14,9 C
18.07.2012 01:11 14,9 C 85 % 1018,3 hPa 0,0 l/m 8,3 km/h (2 Bft) W-SW 247 12,4 C 14,9 C
18.07.2012 01:16 14,9 C 85 % 1018,3 hPa 0,0 l/m 12,6 km/h (3 Bft) W-SW 247 12,4 C 14,9 C
18.07.2012 01:21 14,9 C 85 % 1018,3 hPa 0,0 l/m 8,6 km/h (2 Bft) SW 225 12,4 C 14,9 C
18.07.2012 01:26 14,9 C 85 % 1018,4 hPa 0,0 l/m 6,8 km/h (2 Bft) SW 225 12,4 C 14,9 C
18.07.2012 01:31 14,9 C 85 % 1018,4 hPa 0,0 l/m 13,0 km/h (3 Bft) W 270 12,4 C 14,9 C
18.07.2012 01:36 14,8 C 86 % 1018,2 hPa 0,0 l/m 13,0 km/h (3 Bft) W-SW 247 12,5 C 14,8 C
18.07.2012 01:41 14,8 C 86 % 1018,2 hPa 0,0 l/m 17,3 km/h (3 Bft) W-SW 247 12,5 C 14,8 C
18.07.2012 01:46 14,8 C 86 % 1018,3 hPa 0,0 l/m 15,1 km/h (3 Bft) W-SW 247 12,5 C 14,8 C
18.07.2012 01:51 14,8 C 86 % 1018,3 hPa 0,0 l/m 13,7 km/h (3 Bft) W 270 12,5 C 14,8 C
18.07.2012 01:56 14,7 C 86 % 1018,3 hPa 0,0 l/m 5,4 km/h (1 Bft) W 270 12,4 C 14,7 C
18.07.2012 02:01 14,7 C 86 % 1018,4 hPa 0,0 l/m 11,2 km/h (2 Bft) W-SW 247 12,4 C 14,7 C
18.07.2012 02:06 14,7 C 86 % 1018,4 hPa 0,0 l/m 7,2 km/h (2 Bft) W-SW 247 12,4 C 14,7 C
18.07.2012 02:11 14,6 C 86 % 1018,3 hPa 0,0 l/m 6,8 km/h (2 Bft) W-SW 247 12,3 C 14,6 C
18.07.2012 02:16 14,6 C 86 % 1018,1 hPa 0,0 l/m 11,9 km/h (2 Bft) W-SW 247 12,3 C 14,6 C
18.07.2012 02:21 14,6 C 86 % 1018,1 hPa 0,0 l/m 7,9 km/h (2 Bft) W 270 12,3 C 14,6 C
18.07.2012 02:26 14,6 C 86 % 1018,1 hPa 0,0 l/m 4,3 km/h (1 Bft) W 270 12,3 C 14,6 C
18.07.2012 02:31 14,6 C 86 % 1018,0 hPa 0,0 l/m 9,4 km/h (2 Bft) W 270 12,3 C 14,6 C
18.07.2012 02:36 14,6 C 86 % 1017,9 hPa 0,0 l/m 11,2 km/h (2 Bft) W-SW 247 12,3 C 14,6 C
18.07.2012 02:41 14,6 C 86 % 1017,9 hPa 0,0 l/m 10,1 km/h (2 Bft) W-SW 247 12,3 C 14,6 C
18.07.2012 02:46 14,6 C 86 % 1017,9 hPa 0,0 l/m 8,3 km/h (2 Bft) SW 225 12,3 C 14,6 C
18.07.2012 02:51 14,6 C 86 % 1017,9 hPa 0,0 l/m 7,9 km/h (2 Bft) W-SW 247 12,3 C 14,6 C
18.07.2012 02:56 14,5 C 86 % 1017,9 hPa 0,0 l/m 12,6 km/h (3 Bft) W 270 12,2 C 14,5 C
18.07.2012 03:01 14,5 C 86 % 1017,8 hPa 0,0 l/m 10,8 km/h (2 Bft) W-SW 247 12,2 C 14,5 C
18.07.2012 03:06 14,4 C 86 % 1017,9 hPa 0,0 l/m 14,4 km/h (3 Bft) W 270 12,1 C 14,4 C
18.07.2012 03:11 14,4 C 86 % 1017,9 hPa 0,0 l/m 9,7 km/h (2 Bft) W-SW 247 12,1 C 14,4 C
18.07.2012 03:16 14,4 C 87 % 1017,9 hPa 0,0 l/m 9,4 km/h (2 Bft) W 270 12,3 C 14,4 C
18.07.2012 03:21 14,4 C 87 % 1017,9 hPa 0,0 l/m 0,0 km/h (0 Bft) W-SW 247 12,3 C 14,4 C
18.07.2012 03:26 14,4 C 87 % 1017,8 hPa 0,0 l/m 9,4 km/h (2 Bft) W 270 12,3 C 14,4 C
18.07.2012 03:31 14,4 C 87 % 1017,7 hPa 0,0 l/m 5,8 km/h (2 Bft) W 270 12,3 C 14,4 C
18.07.2012 03:36 14,4 C 88 % 1017,6 hPa 0,0 l/m 6,1 km/h (2 Bft) W-SW 247 12,4 C 14,4 C
18.07.2012 03:41 14,4 C 88 % 1017,4 hPa 0,0 l/m 7,9 km/h (2 Bft) W-SW 247 12,4 C 14,4 C
18.07.2012 03:46 14,4 C 88 % 1017,5 hPa 0,0 l/m 6,1 km/h (2 Bft) W-SW 247 12,4 C 14,4 C
18.07.2012 03:51 14,4 C 88 % 1017,3 hPa 0,0 l/m 8,3 km/h (2 Bft) W 270 12,4 C 14,4 C
18.07.2012 03:56 14,4 C 88 % 1017,4 hPa 0,0 l/m 8,3 km/h (2 Bft) W-SW 247 12,4 C 14,4 C
18.07.2012 04:01 14,4 C 88 % 1017,5 hPa 0,0 l/m 4,7 km/h (1 Bft) W 270 12,4 C 14,4 C
18.07.2012 04:06 14,4 C 88 % 1017,4 hPa 0,0 l/m 12,2 km/h (2 Bft) W 270 12,4 C 14,4 C
18.07.2012 04:11 14,4 C 88 % 1017,4 hPa 0,0 l/m 11,9 km/h (2 Bft) W 270 12,4 C 14,4 C
18.07.2012 04:16 14,4 C 88 % 1017,3 hPa 0,0 l/m 14,0 km/h (3 Bft) W-SW 247 12,4 C 14,4 C
18.07.2012 04:21 14,4 C 88 % 1017,2 hPa 0,0 l/m 8,3 km/h (2 Bft) W-SW 247 12,4 C 14,4 C
18.07.2012 04:26 14,4 C 88 % 1017,2 hPa 0,0 l/m 11,2 km/h (2 Bft) W-SW 247 12,4 C 14,4 C
18.07.2012 04:31 14,4 C 88 % 1017,1 hPa 0,0 l/m 5,4 km/h (1 Bft) W-SW 247 12,4 C 14,4 C
18.07.2012 04:36 14,4 C 88 % 1016,9 hPa 0,0 l/m 10,1 km/h (2 Bft) W-SW 247 12,4 C 14,4 C
18.07.2012 04:41 14,4 C 88 % 1016,6 hPa 0,0 l/m 6,5 km/h (2 Bft) W-SW 247 12,4 C 14,4 C
18.07.2012 04:46 14,4 C 88 % 1016,8 hPa 0,0 l/m 2,5 km/h (1 Bft) W-NW 292 12,4 C 14,4 C
18.07.2012 04:51 14,4 C 88 % 1016,8 hPa 0,0 l/m 3,2 km/h (1 Bft) W-SW 247 12,4 C 14,4 C
18.07.2012 04:56 14,4 C 88 % 1016,8 hPa 0,0 l/m 5,0 km/h (1 Bft) W 270 12,4 C 14,4 C
18.07.2012 05:01 14,4 C 88 % 1016,8 hPa 0,0 l/m 1,4 km/h (1 Bft) W-SW 247 12,4 C 14,4 C
18.07.2012 05:06 14,4 C 89 % 1016,8 hPa 0,0 l/m 6,5 km/h (2 Bft) W-SW 247 12,6 C 14,4 C
18.07.2012 05:11 14,4 C 89 % 1016,5 hPa 0,0 l/m 6,1 km/h (2 Bft) W-SW 247 12,6 C 14,4 C
18.07.2012 05:16 14,5 C 89 % 1016,6 hPa 0,0 l/m 4,0 km/h (1 Bft) W-SW 247 12,7 C 14,5 C
18.07.2012 05:21 14,5 C 89 % 1016,5 hPa 0,0 l/m 2,5 km/h (1 Bft) SW 225 12,7 C 14,5 C
18.07.2012 05:26 14,5 C 89 % 1016,6 hPa 0,0 l/m 2,2 km/h (1 Bft) SW 225 12,7 C 14,5 C
18.07.2012 05:31 14,6 C 89 % 1016,6 hPa 0,0 l/m 4,7 km/h (1 Bft) W-SW 247 12,8 C 14,6 C
18.07.2012 05:36 14,6 C 89 % 1016,5 hPa 0,0 l/m 4,7 km/h (1 Bft) SW 225 12,8 C 14,6 C
18.07.2012 05:41 14,7 C 89 % 1016,4 hPa 0,0 l/m 4,3 km/h (1 Bft) S-SW 202 12,9 C 14,7 C
18.07.2012 05:46 14,7 C 89 % 1016,4 hPa 0,0 l/m 6,8 km/h (2 Bft) W-SW 247 12,9 C 14,7 C
18.07.2012 05:51 14,8 C 89 % 1016,4 hPa 0,0 l/m 3,6 km/h (1 Bft) W-SW 247 13,0 C 14,8 C
18.07.2012 05:56 14,8 C 89 % 1016,4 hPa 0,0 l/m 7,9 km/h (2 Bft) W-SW 247 13,0 C 14,8 C
18.07.2012 06:01 14,8 C 89 % 1016,4 hPa 0,0 l/m 4,7 km/h (1 Bft) W-SW 247 13,0 C 14,8 C
18.07.2012 06:06 14,8 C 89 % 1016,3 hPa 0,0 l/m 4,0 km/h (1 Bft) SW 225 13,0 C 14,8 C
18.07.2012 06:11 14,8 C 89 % 1016,3 hPa 0,0 l/m 4,7 km/h (1 Bft) SW 225 13,0 C 14,8 C
18.07.2012 06:16 14,9 C 89 % 1016,1 hPa 0,0 l/m 10,1 km/h (2 Bft) SW 225 13,1 C 14,9 C
18.07.2012 06:21 14,9 C 89 % 1016,1 hPa 0,0 l/m 4,0 km/h (1 Bft) W-SW 247 13,1 C 14,9 C
18.07.2012 06:26 14,9 C 89 % 1015,9 hPa 0,0 l/m 7,6 km/h (2 Bft) SW 225 13,1 C 14,9 C
18.07.2012 06:31 14,9 C 90 % 1016,1 hPa 0,0 l/m 7,6 km/h (2 Bft) SW 225 13,3 C 14,9 C
18.07.2012 06:36 14,9 C 90 % 1016,0 hPa 0,0 l/m 7,9 km/h (2 Bft) S-SW 202 13,3 C 14,9 C
18.07.2012 06:41 14,9 C 90 % 1016,0 hPa 0,0 l/m 7,6 km/h (2 Bft) SW 225 13,3 C 14,9 C
18.07.2012 06:46 14,9 C 90 % 1015,9 hPa 0,0 l/m 7,2 km/h (2 Bft) W 270 13,3 C 14,9 C
18.07.2012 06:51 14,9 C 90 % 1016,0 hPa 0,0 l/m 5,8 km/h (2 Bft) W 270 13,3 C 14,9 C
18.07.2012 06:56 14,9 C 90 % 1016,0 hPa 0,0 l/m 6,1 km/h (2 Bft) SW 225 13,3 C 14,9 C
18.07.2012 07:01 14,9 C 89 % 1015,8 hPa 0,0 l/m 7,9 km/h (2 Bft) SW 225 13,1 C 14,9 C
18.07.2012 07:06 14,9 C 89 % 1015,9 hPa 0,0 l/m 8,3 km/h (2 Bft) W 270 13,1 C 14,9 C
18.07.2012 07:11 14,9 C 89 % 1015,8 hPa 0,0 l/m 1,8 km/h (1 Bft) S-SW 202 13,1 C 14,9 C
18.07.2012 07:16 14,9 C 90 % 1015,8 hPa 0,5 l/m 4,0 km/h (1 Bft) W 270 13,3 C 14,9 C
18.07.2012 07:21 14,9 C 90 % 1015,8 hPa 0,0 l/m 2,5 km/h (1 Bft) W-SW 247 13,3 C 14,9 C
18.07.2012 07:26 14,9 C 90 % 1015,7 hPa 0,0 l/m 8,3 km/h (2 Bft) W-SW 247 13,3 C 14,9 C
18.07.2012 07:31 14,9 C 90 % 1015,7 hPa 0,0 l/m 5,4 km/h (1 Bft) SW 225 13,3 C 14,9 C
18.07.2012 07:36 15,0 C 90 % 1015,8 hPa 0,0 l/m 7,6 km/h (2 Bft) W-SW 247 13,4 C 15,0 C
18.07.2012 07:41 15,0 C 90 % 1015,8 hPa 0,0 l/m 7,2 km/h (2 Bft) W-SW 247 13,4 C 15,0 C
18.07.2012 07:46 15,0 C 90 % 1015,8 hPa 0,0 l/m 5,8 km/h (2 Bft) SW 225 13,4 C 15,0 C
18.07.2012 07:51 15,1 C 90 % 1015,7 hPa 0,0 l/m 12,2 km/h (2 Bft) W 270 13,5 C 15,1 C
18.07.2012 07:56 14,9 C 90 % 1015,7 hPa 0,0 l/m 4,7 km/h (1 Bft) W-SW 247 13,3 C 14,9 C
18.07.2012 08:01 14,9 C 90 % 1015,8 hPa 0,0 l/m 14,0 km/h (3 Bft) W-SW 247 13,3 C 14,9 C
18.07.2012 08:06 14,9 C 90 % 1015,7 hPa 0,0 l/m 10,1 km/h (2 Bft) W-SW 247 13,3 C 14,9 C
18.07.2012 08:11 14,9 C 90 % 1015,7 hPa 0,0 l/m 4,3 km/h (1 Bft) SW 225 13,3 C 14,9 C
18.07.2012 08:16 14,9 C 90 % 1015,7 hPa 0,0 l/m 9,0 km/h (2 Bft) W-SW 247 13,3 C 14,9 C
18.07.2012 08:21 14,9 C 90 % 1015,6 hPa 0,0 l/m 4,3 km/h (1 Bft) W-SW 247 13,3 C 14,9 C
18.07.2012 08:26 14,9 C 90 % 1015,5 hPa 0,0 l/m 4,0 km/h (1 Bft) S 180 13,3 C 14,9 C
18.07.2012 08:31 14,9 C 90 % 1015,6 hPa 0,0 l/m 6,1 km/h (2 Bft) W-SW 247 13,3 C 14,9 C
18.07.2012 08:36 14,9 C 90 % 1015,6 hPa 0,5 l/m 10,8 km/h (2 Bft) W 270 13,3 C 14,9 C
18.07.2012 08:41 14,9 C 90 % 1015,4 hPa 0,0 l/m 8,6 km/h (2 Bft) W-SW 247 13,3 C 14,9 C
18.07.2012 08:46 14,9 C 90 % 1015,4 hPa 0,0 l/m 9,7 km/h (2 Bft) W-SW 247 13,3 C 14,9 C
18.07.2012 08:51 14,9 C 90 % 1015,3 hPa 0,5 l/m 6,5 km/h (2 Bft) W 270 13,3 C 14,9 C
18.07.2012 08:56 14,9 C 90 % 1015,3 hPa 0,0 l/m 9,7 km/h (2 Bft) SW 225 13,3 C 14,9 C
18.07.2012 09:01 14,9 C 90 % 1015,3 hPa 0,0 l/m 7,9 km/h (2 Bft) W-SW 247 13,3 C 14,9 C
18.07.2012 09:06 14,9 C 90 % 1015,3 hPa 0,0 l/m 3,2 km/h (1 Bft) SW 225 13,3 C 14,9 C
18.07.2012 09:11 15,0 C 90 % 1015,4 hPa 0,0 l/m 4,0 km/h (1 Bft) W-SW 247 13,4 C 15,0 C
18.07.2012 09:16 15,2 C 90 % 1015,2 hPa 0,0 l/m 4,3 km/h (1 Bft) S-SW 202 13,6 C 15,2 C
18.07.2012 09:21 15,2 C 90 % 1015,2 hPa 0,5 l/m 4,0 km/h (1 Bft) SW 225 13,6 C 15,2 C
18.07.2012 09:26 15,1 C 90 % 1015,2 hPa 0,0 l/m 5,8 km/h (2 Bft) W-SW 247 13,5 C 15,1 C
18.07.2012 09:31 15,2 C 90 % 1015,0 hPa 0,0 l/m 5,4 km/h (1 Bft) S-SW 202 13,6 C 15,2 C
18.07.2012 09:36 15,1 C 90 % 1015,3 hPa 0,0 l/m 3,6 km/h (1 Bft) SW 225 13,5 C 15,1 C
18.07.2012 09:41 15,1 C 90 % 1015,1 hPa 0,0 l/m 5,0 km/h (1 Bft) W-SW 247 13,5 C 15,1 C
18.07.2012 09:46 15,2 C 91 % 1015,0 hPa 0,0 l/m 6,1 km/h (2 Bft) S-SW 202 13,7 C 15,2 C
18.07.2012 09:51 15,4 C 91 % 1014,9 hPa 0,5 l/m 2,9 km/h (1 Bft) W-SW 247 13,9 C 15,4 C
18.07.2012 09:56 15,5 C 90 % 1014,9 hPa 0,0 l/m 3,2 km/h (1 Bft) W-SW 247 13,9 C 15,5 C
18.07.2012 10:01 15,5 C 90 % 1014,9 hPa 0,0 l/m 0,0 km/h (0 Bft) W 270 13,9 C 15,5 C
18.07.2012 10:06 15,6 C 90 % 1014,9 hPa 0,0 l/m 3,2 km/h (1 Bft) SW 225 14,0 C 15,6 C
18.07.2012 10:11 15,6 C 90 % 1014,7 hPa 0,0 l/m 3,6 km/h (1 Bft) S-SW 202 14,0 C 15,6 C
18.07.2012 10:16 15,8 C 90 % 1014,7 hPa 0,5 l/m 5,0 km/h (1 Bft) S 180 14,2 C 15,8 C
18.07.2012 10:21 15,6 C 90 % 1014,6 hPa 0,0 l/m 6,1 km/h (2 Bft) S-SO 157 14,0 C 15,6 C
18.07.2012 10:26 15,8 C 90 % 1014,6 hPa 0,0 l/m 4,3 km/h (1 Bft) S-SW 202 14,2 C 15,8 C
18.07.2012 10:31 15,8 C 90 % 1014,5 hPa 0,0 l/m 0,0 km/h (0 Bft) S-SO 157 14,2 C 15,8 C
18.07.2012 10:36 15,9 C 90 % 1014,4 hPa 0,0 l/m 5,8 km/h (2 Bft) S-SO 157 14,3 C 15,9 C
18.07.2012 10:41 15,9 C 90 % 1014,2 hPa 0,0 l/m 3,2 km/h (1 Bft) S-SO 157 14,3 C 15,9 C
18.07.2012 10:46 15,9 C 90 % 1014,3 hPa 0,0 l/m 4,7 km/h (1 Bft) S-SW 202 14,3 C 15,9 C
18.07.2012 10:51 15,9 C 90 % 1014,4 hPa 0,0 l/m 2,2 km/h (1 Bft) SW 225 14,3 C 15,9 C
18.07.2012 10:56 16,0 C 90 % 1014,4 hPa 0,0 l/m 3,6 km/h (1 Bft) S 180 14,4 C 16,0 C
18.07.2012 11:01 16,1 C 90 % 1014,3 hPa 0,0 l/m 3,2 km/h (1 Bft) S-SW 202 14,5 C 16,1 C
18.07.2012 11:06 16,1 C 91 % 1014,3 hPa 0,0 l/m 4,7 km/h (1 Bft) S-SW 202 14,6 C 16,1 C
18.07.2012 11:11 16,2 C 91 % 1014,3 hPa 0,0 l/m 7,9 km/h (2 Bft) W-SW 247 14,7 C 16,2 C
18.07.2012 11:16 16,2 C 91 % 1014,3 hPa 0,0 l/m 5,0 km/h (1 Bft) W-SW 247 14,7 C 16,2 C
18.07.2012 11:21 16,3 C 91 % 1014,2 hPa 0,0 l/m 2,2 km/h (1 Bft) S-SW 202 14,8 C 16,3 C
18.07.2012 11:26 16,3 C 91 % 1014,2 hPa 0,0 l/m 4,3 km/h (1 Bft) SW 225 14,8 C 16,3 C
18.07.2012 11:31 16,4 C 91 % 1014,1 hPa 0,0 l/m 1,4 km/h (1 Bft) S-SW 202 14,9 C 16,4 C
18.07.2012 11:36 16,4 C 91 % 1014,2 hPa 0,0 l/m 3,6 km/h (1 Bft) S-SW 202 14,9 C 16,4 C
18.07.2012 11:41 16,4 C 91 % 1014,1 hPa 0,0 l/m 3,6 km/h (1 Bft) SW 225 14,9 C 16,4 C
18.07.2012 11:46 16,4 C 91 % 1014,0 hPa 0,0 l/m 4,7 km/h (1 Bft) S-SW 202 14,9 C 16,4 C
18.07.2012 11:51 16,5 C 91 % 1013,9 hPa 0,0 l/m 3,6 km/h (1 Bft) SW 225 15,0 C 16,5 C
18.07.2012 11:56 16,7 C 91 % 1013,8 hPa 0,0 l/m 5,8 km/h (2 Bft) SW 225 15,2 C 16,7 C
18.07.2012 12:01 16,9 C 91 % 1013,8 hPa 0,0 l/m 0,0 km/h (0 Bft) S-SW 202 15,4 C 16,9 C
18.07.2012 12:06 16,9 C 91 % 1013,6 hPa 0,0 l/m 4,7 km/h (1 Bft) SW 225 15,4 C 16,9 C
18.07.2012 12:11 16,9 C 90 % 1013,5 hPa 0,0 l/m 2,5 km/h (1 Bft) S-SW 202 15,2 C 16,9 C
18.07.2012 12:16 17,1 C 90 % 1013,5 hPa 0,0 l/m 4,3 km/h (1 Bft) SW 225 15,4 C 17,1 C
18.07.2012 12:21 17,3 C 90 % 1013,6 hPa 0,0 l/m 6,5 km/h (2 Bft) W 270 15,6 C 17,3 C
18.07.2012 12:26 17,3 C 90 % 1013,6 hPa 0,5 l/m 4,0 km/h (1 Bft) S-SW 202 15,6 C 17,3 C
18.07.2012 12:31 17,2 C 90 % 1013,7 hPa 0,0 l/m 6,1 km/h (2 Bft) W-SW 247 15,5 C 17,2 C
18.07.2012 12:36 17,0 C 90 % 1013,7 hPa 0,0 l/m 7,6 km/h (2 Bft) W 270 15,3 C 17,0 C
18.07.2012 12:41 16,9 C 90 % 1013,6 hPa 0,5 l/m 3,6 km/h (1 Bft) W 270 15,2 C 16,9 C
18.07.2012 12:46 16,8 C 90 % 1013,6 hPa 0,5 l/m 5,8 km/h (2 Bft) W-SW 247 15,1 C 16,8 C
18.07.2012 12:51 16,8 C 91 % 1013,6 hPa 0,0 l/m 10,4 km/h (2 Bft) W-SW 247 15,3 C 16,8 C
18.07.2012 12:56 16,8 C 91 % 1013,3 hPa 0,5 l/m 4,3 km/h (1 Bft) S-SW 202 15,3 C 16,8 C
18.07.2012 13:01 16,9 C 91 % 1013,3 hPa 0,5 l/m 2,2 km/h (1 Bft) S-SW 202 15,4 C 16,9 C
18.07.2012 13:06 17,2 C 91 % 1013,5 hPa 0,0 l/m 5,0 km/h (1 Bft) W-SW 247 15,7 C 17,2 C
18.07.2012 13:11 17,3 C 91 % 1013,5 hPa 0,0 l/m 4,0 km/h (1 Bft) W-SW 247 15,8 C 17,3 C
18.07.2012 13:16 17,3 C 91 % 1013,4 hPa 0,0 l/m 5,0 km/h (1 Bft) SW 225 15,8 C 17,3 C
18.07.2012 13:21 17,3 C 91 % 1013,5 hPa 0,5 l/m 9,4 km/h (2 Bft) W-SW 247 15,8 C 17,3 C
18.07.2012 13:26 17,6 C 91 % 1013,3 hPa 0,5 l/m 10,1 km/h (2 Bft) SW 225 16,1 C 17,6 C
18.07.2012 13:31 18,1 C 91 % 1013,1 hPa 0,0 l/m 13,0 km/h (3 Bft) W-SW 247 16,6 C 18,1 C
18.07.2012 13:36 18,3 C 90 % 1013,0 hPa 0,0 l/m 6,1 km/h (2 Bft) SW 225 16,6 C 18,3 C
18.07.2012 13:41 18,1 C 90 % 1013,3 hPa 0,0 l/m 6,5 km/h (2 Bft) W-SW 247 16,4 C 18,1 C
18.07.2012 13:46 18,1 C 90 % 1013,1 hPa 0,0 l/m 7,9 km/h (2 Bft) S-SW 202 16,4 C 18,1 C
18.07.2012 13:51 17,9 C 89 % 1013,1 hPa 0,0 l/m 9,7 km/h (2 Bft) W-SW 247 16,1 C 17,9 C
18.07.2012 13:56 17,8 C 89 % 1013,1 hPa 0,0 l/m 8,3 km/h (2 Bft) SW 225 16,0 C 17,8 C
18.07.2012 14:01 17,6 C 89 % 1013,0 hPa 0,0 l/m 9,4 km/h (2 Bft) W-SW 247 15,8 C 17,6 C
18.07.2012 14:06 17,8 C 89 % 1012,9 hPa 0,0 l/m 8,3 km/h (2 Bft) S-SW 202 16,0 C 17,8 C
18.07.2012 14:11 17,8 C 89 % 1012,7 hPa 0,0 l/m 6,5 km/h (2 Bft) SW 225 16,0 C 17,8 C
18.07.2012 14:16 17,8 C 89 % 1012,8 hPa 0,0 l/m 12,2 km/h (2 Bft) S-SW 202 16,0 C 17,8 C
18.07.2012 14:21 17,6 C 89 % 1012,7 hPa 0,0 l/m 4,7 km/h (1 Bft) S-SW 202 15,8 C 17,6 C
18.07.2012 14:26 17,6 C 89 % 1012,5 hPa 0,5 l/m 9,0 km/h (2 Bft) W-SW 247 15,8 C 17,6 C
18.07.2012 14:31 17,6 C 89 % 1012,5 hPa 0,5 l/m 6,1 km/h (2 Bft) SW 225 15,8 C 17,6 C
18.07.2012 14:36 17,5 C 90 % 1012,5 hPa 0,0 l/m 4,7 km/h (1 Bft) S 180 15,8 C 17,5 C
18.07.2012 14:41 17,4 C 90 % 1012,5 hPa 0,0 l/m 11,5 km/h (2 Bft) W-SW 247 15,7 C 17,4 C
18.07.2012 14:46 17,3 C 90 % 1012,7 hPa 1,6 l/m 11,2 km/h (2 Bft) W-SW 247 15,6 C 17,3 C
18.07.2012 14:51 17,4 C 90 % 1012,3 hPa 1,0 l/m 7,9 km/h (2 Bft) W 270 15,7 C 17,4 C
18.07.2012 14:56 18,3 C 90 % 1012,2 hPa 0,0 l/m 4,3 km/h (1 Bft) W 270 16,6 C 18,3 C
18.07.2012 15:01 19,1 C 90 % 1012,3 hPa 0,0 l/m 4,3 km/h (1 Bft) W-SW 247 17,4 C 19,1 C
18.07.2012 15:06 19,9 C 88 % 1012,2 hPa 0,0 l/m 8,3 km/h (2 Bft) S-SW 202 17,8 C 19,9 C
18.07.2012 15:11 20,3 C 86 % 1012,1 hPa 0,0 l/m 11,9 km/h (2 Bft) S-SW 202 17,9 C 20,3 C
18.07.2012 15:16 20,1 C 85 % 1012,1 hPa 0,0 l/m 14,8 km/h (3 Bft) W-SW 247 17,5 C 20,1 C
18.07.2012 15:21 20,4 C 85 % 1012,1 hPa 0,0 l/m 5,0 km/h (1 Bft) SW 225 17,8 C 20,4 C
18.07.2012 15:26 20,2 C 84 % 1012,0 hPa 0,0 l/m 6,8 km/h (2 Bft) SW 225 17,4 C 20,2 C
18.07.2012 15:31 20,1 C 85 % 1011,9 hPa 0,0 l/m 5,8 km/h (2 Bft) SW 225 17,5 C 20,1 C
18.07.2012 15:36 20,1 C 85 % 1011,7 hPa 0,0 l/m 4,3 km/h (1 Bft) S-SW 202 17,5 C 20,1 C
18.07.2012 15:41 20,0 C 85 % 1011,7 hPa 0,0 l/m 0,0 km/h (0 Bft) SW 225 17,4 C 20,0 C
18.07.2012 15:46 20,1 C 85 % 1011,7 hPa 0,0 l/m 0,0 km/h (0 Bft) W 270 17,5 C 20,1 C
18.07.2012 15:51 20,4 C 84 % 1011,5 hPa 0,0 l/m 5,0 km/h (1 Bft) W-SW 247 17,6 C 20,4 C
18.07.2012 15:56 20,8 C 83 % 1011,4 hPa 0,0 l/m 4,7 km/h (1 Bft) W-SW 247 17,8 C 20,8 C
18.07.2012 16:01 21,1 C 83 % 1011,5 hPa 0,0 l/m 2,5 km/h (1 Bft) W-SW 247 18,1 C 21,1 C
18.07.2012 16:06 21,2 C 82 % 1011,3 hPa 0,0 l/m 3,2 km/h (1 Bft) SW 225 18,0 C 21,2 C
18.07.2012 16:11 21,1 C 82 % 1011,3 hPa 0,0 l/m 6,1 km/h (2 Bft) W-SW 247 17,9 C 21,1 C
18.07.2012 16:16 21,1 C 82 % 1011,2 hPa 0,0 l/m 14,4 km/h (3 Bft) W 270 17,9 C 21,1 C
18.07.2012 16:21 21,1 C 82 % 1011,1 hPa 0,0 l/m 4,7 km/h (1 Bft) S-SW 202 17,9 C 21,1 C
18.07.2012 16:26 21,3 C 81 % 1011,0 hPa 0,0 l/m 2,9 km/h (1 Bft) S-SW 202 17,9 C 21,3 C
18.07.2012 16:31 21,3 C 80 % 1010,9 hPa 0,0 l/m 5,8 km/h (2 Bft) SW 225 17,7 C 21,3 C
18.07.2012 16:36 21,4 C 79 % 1011,1 hPa 0,0 l/m 16,9 km/h (3 Bft) SW 225 17,6 C 21,4 C
18.07.2012 16:41 21,5 C 77 % 1010,9 hPa 0,0 l/m 16,9 km/h (3 Bft) W 270 17,3 C 21,5 C
18.07.2012 16:46 21,3 C 77 % 1010,8 hPa 0,0 l/m 10,1 km/h (2 Bft) SW 225 17,1 C 21,3 C
18.07.2012 16:51 21,2 C 77 % 1010,7 hPa 0,0 l/m 9,7 km/h (2 Bft) S-SW 202 17,0 C 21,2 C
18.07.2012 16:56 21,1 C 77 % 1010,9 hPa 0,0 l/m 9,7 km/h (2 Bft) W-SW 247 16,9 C 21,1 C
18.07.2012 17:01 20,8 C 76 % 1010,7 hPa 0,0 l/m 20,5 km/h (4 Bft) W-SW 247 16,4 C 20,8 C
18.07.2012 17:06 20,4 C 76 % 1010,7 hPa 0,0 l/m 12,6 km/h (3 Bft) W-SW 247 16,0 C 20,4 C
18.07.2012 17:11 20,2 C 76 % 1010,6 hPa 0,0 l/m 14,4 km/h (3 Bft) W 270 15,8 C 20,2 C
18.07.2012 17:16 20,2 C 76 % 1010,5 hPa 0,0 l/m 7,9 km/h (2 Bft) S-SW 202 15,8 C 20,2 C
18.07.2012 17:21 20,3 C 76 % 1010,4 hPa 0,0 l/m 16,9 km/h (3 Bft) W-SW 247 15,9 C 20,3 C
18.07.2012 17:26 20,4 C 76 % 1010,4 hPa 0,0 l/m 4,7 km/h (1 Bft) W-SW 247 16,0 C 20,4 C
18.07.2012 17:31 20,9 C 76 % 1010,2 hPa 0,0 l/m 15,8 km/h (3 Bft) W 270 16,5 C 20,9 C
18.07.2012 17:36 21,5 C 74 % 1010,3 hPa 0,0 l/m 4,3 km/h (1 Bft) W 270 16,7 C 21,5 C
18.07.2012 17:41 21,9 C 72 % 1010,3 hPa 0,0 l/m 14,0 km/h (3 Bft) W-SW 247 16,6 C 21,9 C
18.07.2012 17:46 22,5 C 71 % 1010,2 hPa 0,0 l/m 5,4 km/h (1 Bft) W 270 17,0 C 22,5 C
18.07.2012 17:51 22,0 C 68 % 1010,2 hPa 0,0 l/m 8,6 km/h (2 Bft) S-SW 202 15,8 C 22,0 C
18.07.2012 17:56 21,8 C 68 % 1010,0 hPa 0,0 l/m 6,8 km/h (2 Bft) SW 225 15,6 C 21,8 C
18.07.2012 18:01 21,6 C 68 % 1009,9 hPa 0,0 l/m 6,5 km/h (2 Bft) SW 225 15,4 C 21,6 C
18.07.2012 18:06 21,8 C 68 % 1009,8 hPa 0,0 l/m 4,7 km/h (1 Bft) SW 225 15,6 C 21,8 C
18.07.2012 18:11 22,3 C 67 % 1009,8 hPa 0,0 l/m 12,2 km/h (2 Bft) W-SW 247 15,9 C 22,3 C
18.07.2012 18:16 22,1 C 67 % 1009,8 hPa 0,0 l/m 14,4 km/h (3 Bft) W-NW 292 15,7 C 22,1 C
18.07.2012 18:21 21,8 C 66 % 1009,5 hPa 0,0 l/m 6,1 km/h (2 Bft) W-SW 247 15,2 C 21,8 C
18.07.2012 18:26 21,8 C 65 % 1009,4 hPa 0,0 l/m 13,7 km/h (3 Bft) W-NW 292 14,9 C 21,8 C
18.07.2012 18:31 22,1 C 66 % 1009,3 hPa 0,0 l/m 16,9 km/h (3 Bft) W-SW 247 15,4 C 22,1 C
18.07.2012 18:36 22,3 C 65 % 1009,3 hPa 0,0 l/m 5,4 km/h (1 Bft) W-SW 247 15,4 C 22,3 C
18.07.2012 18:41 22,2 C 65 % 1009,3 hPa 0,0 l/m 10,4 km/h (2 Bft) SW 225 15,3 C 22,2 C
18.07.2012 18:46 21,9 C 66 % 1009,3 hPa 0,0 l/m 4,7 km/h (1 Bft) SW 225 15,3 C 21,9 C
18.07.2012 18:51 21,9 C 66 % 1009,2 hPa 0,0 l/m 15,1 km/h (3 Bft) W 270 15,3 C 21,9 C
18.07.2012 18:56 21,8 C 66 % 1009,1 hPa 0,0 l/m 17,6 km/h (3 Bft) W-SW 247 15,2 C 21,8 C
18.07.2012 19:01 21,7 C 66 % 1009,1 hPa 0,0 l/m 7,2 km/h (2 Bft) W-SW 247 15,1 C 21,7 C
18.07.2012 19:06 21,6 C 67 % 1009,0 hPa 0,0 l/m 12,6 km/h (3 Bft) W-SW 247 15,2 C 21,6 C
18.07.2012 19:11 21,6 C 67 % 1009,1 hPa 0,0 l/m 3,6 km/h (1 Bft) W-SW 247 15,2 C 21,6 C
18.07.2012 19:16 21,6 C 67 % 1009,1 hPa 0,0 l/m 12,6 km/h (3 Bft) SW 225 15,2 C 21,6 C
18.07.2012 19:21 21,7 C 67 % 1009,1 hPa 0,0 l/m 8,3 km/h (2 Bft) W-SW 247 15,3 C 21,7 C
18.07.2012 19:26 21,6 C 67 % 1008,8 hPa 0,0 l/m 6,1 km/h (2 Bft) W-SW 247 15,2 C 21,6 C
18.07.2012 19:31 21,6 C 67 % 1008,9 hPa 0,0 l/m 4,0 km/h (1 Bft) W-SW 247 15,2 C 21,6 C
18.07.2012 19:36 21,9 C 67 % 1008,8 hPa 0,0 l/m 8,3 km/h (2 Bft) W 270 15,5 C 21,9 C
18.07.2012 19:41 21,9 C 67 % 1008,7 hPa 0,0 l/m 9,4 km/h (2 Bft) W-SW 247 15,5 C 21,9 C
18.07.2012 19:46 22,1 C 66 % 1008,8 hPa 0,0 l/m 7,6 km/h (2 Bft) W-SW 247 15,4 C 22,1 C
18.07.2012 19:51 21,9 C 65 % 1008,7 hPa 0,0 l/m 6,5 km/h (2 Bft) W 270 15,0 C 21,9 C
18.07.2012 19:56 22,3 C 64 % 1008,7 hPa 0,0 l/m 4,0 km/h (1 Bft) W-SW 247 15,2 C 22,3 C
18.07.2012 20:01 22,6 C 63 % 1008,7 hPa 0,0 l/m 3,2 km/h (1 Bft) W 270 15,2 C 22,6 C
18.07.2012 20:06 22,1 C 62 % 1008,5 hPa 0,0 l/m 4,3 km/h (1 Bft) W 270 14,5 C 22,1 C
18.07.2012 20:11 21,5 C 64 % 1008,4 hPa 0,0 l/m 5,4 km/h (1 Bft) W-SW 247 14,4 C 21,5 C
18.07.2012 20:16 21,1 C 65 % 1008,6 hPa 0,0 l/m 5,4 km/h (1 Bft) W-SW 247 14,3 C 21,1 C
18.07.2012 20:21 20,9 C 67 % 1008,6 hPa 0,0 l/m 6,5 km/h (2 Bft) W-SW 247 14,5 C 20,9 C
18.07.2012 20:26 20,7 C 68 % 1008,5 hPa 0,0 l/m 5,4 km/h (1 Bft) SW 225 14,6 C 20,7 C
18.07.2012 20:31 20,5 C 68 % 1008,5 hPa 0,0 l/m 2,5 km/h (1 Bft) W-SW 247 14,4 C 20,5 C
18.07.2012 20:36 20,4 C 69 % 1008,3 hPa 0,0 l/m 4,3 km/h (1 Bft) SW 225 14,5 C 20,4 C
18.07.2012 20:41 20,2 C 69 % 1008,2 hPa 0,0 l/m 5,0 km/h (1 Bft) SW 225 14,3 C 20,2 C
18.07.2012 20:46 20,1 C 70 % 1008,1 hPa 0,0 l/m 1,8 km/h (1 Bft) S-SW 202 14,5 C 20,1 C
18.07.2012 20:51 19,9 C 70 % 1008,2 hPa 0,0 l/m 6,1 km/h (2 Bft) W-SW 247 14,3 C 19,9 C
18.07.2012 20:56 19,8 C 71 % 1008,1 hPa 0,0 l/m 1,8 km/h (1 Bft) W-SW 247 14,4 C 19,8 C
18.07.2012 21:01 19,6 C 72 % 1008,1 hPa 0,0 l/m 6,5 km/h (2 Bft) SW 225 14,4 C 19,6 C
18.07.2012 21:06 19,4 C 72 % 1008,1 hPa 0,0 l/m 4,7 km/h (1 Bft) S-SW 202 14,2 C 19,4 C
18.07.2012 21:11 19,3 C 73 % 1008,1 hPa 0,0 l/m 2,5 km/h (1 Bft) S-SW 202 14,3 C 19,3 C
18.07.2012 21:16 19,2 C 74 % 1007,9 hPa 0,0 l/m 1,8 km/h (1 Bft) S 180 14,4 C 19,2 C
18.07.2012 21:21 19,0 C 74 % 1007,9 hPa 0,0 l/m 3,2 km/h (1 Bft) S-SW 202 14,3 C 19,0 C
18.07.2012 21:26 18,9 C 74 % 1008,0 hPa 0,0 l/m 4,0 km/h (1 Bft) SW 225 14,2 C 18,9 C
18.07.2012 21:31 18,9 C 74 % 1008,0 hPa 0,0 l/m 5,0 km/h (1 Bft) SW 225 14,2 C 18,9 C
18.07.2012 21:36 18,8 C 75 % 1008,1 hPa 0,0 l/m 1,4 km/h (1 Bft) S 180 14,3 C 18,8 C
18.07.2012 21:41 18,8 C 75 % 1007,9 hPa 0,0 l/m 3,6 km/h (1 Bft) S 180 14,3 C 18,8 C
18.07.2012 21:46 18,6 C 75 % 1007,8 hPa 0,0 l/m 1,8 km/h (1 Bft) SW 225 14,1 C 18,6 C
18.07.2012 21:51 18,5 C 76 % 1007,9 hPa 0,0 l/m 0,0 km/h (0 Bft) SW 225 14,2 C 18,5 C
18.07.2012 21:56 18,4 C 77 % 1007,9 hPa 0,0 l/m 2,5 km/h (1 Bft) SW 225 14,3 C 18,4 C
18.07.2012 22:01 18,3 C 77 % 1008,0 hPa 0,0 l/m 0,0 km/h (0 Bft) W-SW 247 14,2 C 18,3 C
18.07.2012 22:06 18,3 C 77 % 1007,8 hPa 0,0 l/m 1,4 km/h (1 Bft) W-SW 247 14,2 C 18,3 C
18.07.2012 22:11 18,1 C 78 % 1008,0 hPa 0,0 l/m 0,0 km/h (0 Bft) NW 315 14,2 C 18,1 C
18.07.2012 22:16 17,9 C 79 % 1007,8 hPa 0,0 l/m 0,0 km/h (0 Bft) NW 315 14,2 C 17,9 C
18.07.2012 22:21 17,9 C 79 % 1007,8 hPa 0,0 l/m 1,8 km/h (1 Bft) W 270 14,2 C 17,9 C
18.07.2012 22:26 17,9 C 80 % 1007,9 hPa 0,0 l/m 0,0 km/h (0 Bft) W-SW 247 14,4 C 17,9 C
18.07.2012 22:31 17,9 C 80 % 1007,8 hPa 0,0 l/m 2,2 km/h (1 Bft) SW 225 14,4 C 17,9 C
18.07.2012 22:36 17,9 C 80 % 1007,8 hPa 0,0 l/m 2,5 km/h (1 Bft) SW 225 14,4 C 17,9 C
18.07.2012 22:41 17,9 C 80 % 1007,8 hPa 0,0 l/m 4,0 km/h (1 Bft) S-SW 202 14,4 C 17,9 C
18.07.2012 22:46 18,1 C 80 % 1007,8 hPa 0,0 l/m 2,5 km/h (1 Bft) S-SW 202 14,6 C 18,1 C
18.07.2012 22:51 18,1 C 81 % 1008,1 hPa 0,0 l/m 13,3 km/h (3 Bft) S-SO 157 14,8 C 18,1 C
18.07.2012 22:56 17,9 C 82 % 1008,9 hPa 1,0 l/m 14,8 km/h (3 Bft) SW 225 14,8 C 17,9 C
18.07.2012 23:01 17,3 C 85 % 1008,1 hPa 2,1 l/m 6,1 km/h (2 Bft) S 180 14,8 C 17,3 C
18.07.2012 23:06 17,1 C 86 % 1007,9 hPa 0,0 l/m 2,2 km/h (1 Bft) W-SW 247 14,7 C 17,1 C
18.07.2012 23:11 16,9 C 86 % 1007,7 hPa 0,0 l/m 2,2 km/h (1 Bft) W-SW 247 14,5 C 16,9 C
18.07.2012 23:16 16,8 C 87 % 1007,6 hPa 0,0 l/m 2,5 km/h (1 Bft) W-SW 247 14,6 C 16,8 C
18.07.2012 23:21 16,8 C 87 % 1007,6 hPa 0,0 l/m 0,0 km/h (0 Bft) W-SW 247 14,6 C 16,8 C
18.07.2012 23:26 16,7 C 88 % 1007,8 hPa 0,0 l/m 2,5 km/h (1 Bft) W 270 14,7 C 16,7 C
18.07.2012 23:31 16,6 C 88 % 1007,6 hPa 0,0 l/m 6,1 km/h (2 Bft) W-SW 247 14,6 C 16,6 C
18.07.2012 23:36 16,6 C 88 % 1007,7 hPa 0,0 l/m 2,5 km/h (1 Bft) SW 225 14,6 C 16,6 C
18.07.2012 23:41 16,6 C 88 % 1007,8 hPa 0,0 l/m 3,6 km/h (1 Bft) SW 225 14,6 C 16,6 C
18.07.2012 23:46 16,5 C 88 % 1007,6 hPa 0,0 l/m 2,9 km/h (1 Bft) S 180 14,5 C 16,5 C
18.07.2012 23:51 16,5 C 89 % 1007,6 hPa 0,0 l/m 6,1 km/h (2 Bft) SW 225 14,7 C 16,5 C
18.07.2012 23:56 16,5 C 89 % 1007,6 hPa 0,0 l/m 2,9 km/h (1 Bft) S-SW 202 14,7 C 16,5 C
_ Min-Zeit 03:06 20:06 23:16 - 03:21 - - 00:01 03:06
Minimum _ 14,4 C 62 % 1007,6 hPa - 0,0 km/h (0 Bft) - - 11,7 C 14,4 C
_ Max-Zeit 20:01 09:46 00:41 23:01 17:01 - - 16:01 20:01
Maximum _ 22,6 C 91 % 1018,6 hPa 2,1 l/m 20,5 km/h
W-SW (4 Bft)
- - 18,1 C 22,6 C
Durchschnitt _ 17,2 C 84 % 1013,3 hPa #13,5 l/m 6,6 km/h (2 Bft) W-SW - 14,3 C 17,2 C
(c) by David Heller